Council Bluffs, IA

2:44 PM CST on February 19, 2018 (GMT -0600)
Council Bluffs Municipal

Weather History for KCBF - March, 2013

Change the Weather History Date:

Thursday, March 7, 2013

  Actual Average Record
Temperature  
Mean Temperature 34 °F -  
Max Temperature 46 °F 38 °F 77 °F (2016)
Min Temperature 21 °F 22 °F 5 °F (2008)
Degree Days  
Heating Degree Days 32    
Moisture  
Dew Point 25 °F    
Average Humidity 76    
Maximum Humidity 93    
Minimum Humidity 53    
Precipitation  
Precipitation 0.00 in - - ()
Sea Level Pressure  
Sea Level Pressure 30.20 in    
Wind  
Wind Speed 12 mph (SE)    
Max Wind Speed 20 mph    
Max Gust Speed 24 mph    
Visibility 10 miles    
Events      
Averages and records for this station are not official NWS values.
T = Trace of Precipitation, MM = Missing Value Source: NWS Daily Summary

Daily Weather History Graph

Daily Weather History Graph

Search for Another Location

Airport or City:

Trip Planner

Search our weather history database for the weather conditions in past years. The results will help you decide how hot, cold, wet, or windy it might be!

Date:

Astronomy

Mar. 07, 2013 Rise Set
Actual Time 6:47 AM CST 6:21 PM CST
Civil Twilight 6:19 AM CST 6:48 PM CST
Nautical Twilight 5:48 AM CST 7:20 PM CST
Astronomical Twilight 5:15 AM CST 7:52 PM CST
Moon 3:50 AM CST (3/7) 2:08 PM CST (3/7)
Length of Visible Light 12h 28m
Length of Day
11h 33m
Waning Crescent, 20% of the Moon is Illuminated
Mar 7
Waning Crescent
Mar 11
New
Mar 19
First Quarter
Mar 27
Full
Apr 2
Last Quarter

Hourly Weather History & Observations

Time (CST) Temp. Windchill Dew Point Humidity Pressure Visibility Wind Dir Wind Speed Gust Speed Precip Events Conditions
12:15 AM 24.8 °F 16.9 °F 21.2 °F 86% 30.27 in 10.0 mi ESE 6.9 mph - N/A   Clear
12:35 AM 24.8 °F 16.1 °F 21.2 °F 86% 30.28 in 10.0 mi SE 8.1 mph - N/A   Clear
12:55 AM 24.8 °F 16.1 °F 21.2 °F 86% 30.27 in 10.0 mi ESE 8.1 mph - N/A   Clear
1:15 AM 24.8 °F 14.6 °F 21.2 °F 86% 30.27 in 10.0 mi SE 10.4 mph - N/A   Clear
1:35 AM 24.8 °F 15.3 °F 21.2 °F 86% 30.26 in 10.0 mi SE 9.2 mph - N/A   Clear
1:55 AM 24.8 °F 14.6 °F 21.2 °F 86% 30.26 in 10.0 mi ESE 10.4 mph - N/A   Clear
2:15 AM 24.8 °F 16.1 °F 21.2 °F 86% 30.25 in 10.0 mi SE 8.1 mph - N/A   Clear
2:35 AM 24.8 °F 15.3 °F 21.2 °F 86% 30.25 in 10.0 mi SE 9.2 mph - N/A   Clear
2:55 AM 24.8 °F 14.6 °F 21.2 °F 86% 30.25 in 10.0 mi SE 10.4 mph - N/A   Clear
3:15 AM 24.8 °F 13.4 °F 21.2 °F 86% 30.24 in 10.0 mi SE 12.7 mph - N/A   Clear
3:35 AM 23.0 °F 12.4 °F 21.2 °F 93% 30.24 in 10.0 mi SE 10.4 mph - N/A   Clear
3:55 AM 23.0 °F 12.4 °F 19.4 °F 86% 30.23 in 10.0 mi SE 10.4 mph - N/A   Clear
4:15 AM 23.0 °F 12.4 °F 19.4 °F 86% 30.23 in 10.0 mi SE 10.4 mph - N/A   Clear
4:55 AM 23.0 °F 13.1 °F 19.4 °F 86% 30.23 in 10.0 mi ESE 9.2 mph - N/A   Clear
5:15 AM 23.0 °F 11.7 °F 19.4 °F 86% 30.23 in 10.0 mi ESE 11.5 mph - N/A   Clear
5:35 AM 23.0 °F 13.1 °F 19.4 °F 86% 30.23 in 10.0 mi ESE 9.2 mph - N/A   Clear
5:55 AM 23.0 °F 11.1 °F 19.4 °F 86% 30.23 in 10.0 mi ESE 12.7 mph - N/A   Clear
6:15 AM 21.2 °F 8.3 °F 19.4 °F 93% 30.24 in 10.0 mi ESE 13.8 mph - N/A   Clear
6:35 AM 21.2 °F 8.3 °F 19.4 °F 93% 30.24 in 10.0 mi SE 13.8 mph - N/A   Clear
6:55 AM 21.2 °F 8.9 °F 19.4 °F 93% 30.25 in 9.0 mi SE 12.7 mph - N/A   Clear
7:15 AM 21.2 °F 9.5 °F 19.4 °F 93% 30.25 in 10.0 mi SE 11.5 mph - N/A   Clear
7:35 AM 23.0 °F 10.1 °F 19.4 °F 86% 30.25 in 10.0 mi SE 15.0 mph - N/A   Clear
7:55 AM 23.0 °F 10.1 °F 19.4 °F 86% 30.26 in 10.0 mi SE 15.0 mph - N/A   Clear
8:15 AM 24.8 °F 12.4 °F 19.4 °F 80% 30.25 in 10.0 mi SE 15.0 mph - N/A   Clear
8:35 AM 24.8 °F 12.4 °F 21.2 °F 86% 30.26 in 10.0 mi SE 15.0 mph - N/A   Clear
8:55 AM 26.6 °F 14.7 °F 21.2 °F 80% 30.25 in 10.0 mi SE 15.0 mph - N/A   Clear
9:15 AM 26.6 °F 13.8 °F 21.2 °F 80% 30.25 in 10.0 mi SE 17.3 mph - N/A   Clear
9:35 AM 28.4 °F 16.2 °F 23.0 °F 80% 30.24 in 10.0 mi SE 17.3 mph - N/A   Clear
9:55 AM 28.4 °F 16.2 °F 23.0 °F 80% 30.23 in 10.0 mi SE 17.3 mph - N/A   Clear
10:15 AM 30.2 °F 18.9 °F 24.8 °F 80% 30.23 in 10.0 mi SE 16.1 mph 21.9 mph N/A   Clear
10:35 AM 32.0 °F 20.8 °F 24.8 °F 75% 30.22 in 10.0 mi SE 17.3 mph - N/A   Clear
10:55 AM 32.0 °F 21.2 °F 26.6 °F 80% 30.21 in 10.0 mi SSE 16.1 mph 21.9 mph N/A   Clear
11:15 AM 33.8 °F 22.5 °F 26.6 °F 75% 30.21 in 10.0 mi SE 19.6 mph - N/A   Clear
11:35 AM 35.6 °F 25.2 °F 26.6 °F 70% 30.20 in 10.0 mi SSE 18.4 mph - N/A   Clear
11:55 AM 35.6 °F 24.8 °F 26.6 °F 70% 30.19 in 10.0 mi SE 19.6 mph - N/A   Clear
12:15 PM 37.4 °F 28.2 °F 28.4 °F 70% 30.18 in 10.0 mi SSE 16.1 mph 21.9 mph N/A   Clear
12:35 PM 39.2 °F 29.8 °F 28.4 °F 65% 30.17 in 10.0 mi SSE 18.4 mph 24.2 mph N/A   Clear
12:55 PM 39.2 °F 29.8 °F 28.4 °F 65% 30.16 in 10.0 mi SE 18.4 mph - N/A   Clear
1:15 PM 41.0 °F 32.8 °F 30.2 °F 65% 30.15 in 10.0 mi SSE 16.1 mph 23.0 mph N/A   Clear
1:35 PM 41.0 °F 31.9 °F 30.2 °F 65% 30.13 in 10.0 mi SSE 19.6 mph - N/A   Clear
1:55 PM 42.8 °F 34.3 °F 30.2 °F 61% 30.12 in 10.0 mi SSE 19.6 mph - N/A   Clear
2:15 PM 42.8 °F 34.5 °F 30.2 °F 61% 30.12 in 10.0 mi SE 18.4 mph - N/A   Clear
2:35 PM 44.6 °F 36.6 °F 30.2 °F 57% 30.11 in 10.0 mi SSE 19.6 mph - N/A   Clear
2:55 PM 44.6 °F 36.9 °F 30.2 °F 57% 30.11 in 10.0 mi SE 18.4 mph - N/A   Clear
3:15 PM 44.6 °F 37.4 °F 30.2 °F 57% 30.11 in 10.0 mi SE 16.1 mph - N/A   Clear
3:35 PM 46.4 °F 39.5 °F 30.2 °F 53% 30.11 in 10.0 mi SSE 17.3 mph 24.2 mph N/A   Clear
3:55 PM 46.4 °F 39.5 °F 30.2 °F 53% 30.10 in 10.0 mi SE 17.3 mph 24.2 mph N/A   Clear
4:15 PM 44.6 °F 36.9 °F 30.2 °F 57% 30.11 in 10.0 mi SSE 18.4 mph - N/A   Clear
4:35 PM 44.6 °F 37.8 °F 30.2 °F 57% 30.11 in 10.0 mi SE 15.0 mph - N/A   Clear
4:55 PM 44.6 °F 37.4 °F 30.2 °F 57% 30.11 in 10.0 mi SE 16.1 mph - N/A   Clear
5:15 PM 44.6 °F 37.8 °F 30.2 °F 57% 30.12 in 10.0 mi SE 15.0 mph - N/A   Clear
5:35 PM 42.8 °F 35.8 °F 28.4 °F 57% 30.12 in 10.0 mi SE 13.8 mph - N/A   Clear
5:55 PM 41.0 °F 33.9 °F 28.4 °F 61% 30.12 in 10.0 mi SE 12.7 mph - N/A   Clear
7:35 PM 37.4 °F 29.8 °F 28.4 °F 70% 30.15 in 10.0 mi SE 11.5 mph - N/A   Clear
7:55 PM 35.6 °F 27.5 °F 28.4 °F 75% 30.15 in 10.0 mi ESE 11.5 mph - N/A   Clear
8:15 PM 35.6 °F 26.6 °F 28.4 °F 75% 30.16 in 10.0 mi ESE 13.8 mph - N/A   Clear
8:35 PM 35.6 °F 28.6 °F 28.4 °F 75% 30.16 in 10.0 mi SE 9.2 mph 15.0 mph N/A   Clear
8:55 PM 33.8 °F 25.3 °F 28.4 °F 81% 30.16 in 10.0 mi SE 11.5 mph - N/A   Partly Cloudy
9:15 PM 33.8 °F 25.8 °F 28.4 °F 81% 30.17 in 10.0 mi SE 10.4 mph - N/A   Partly Cloudy
9:35 PM 33.8 °F 24.3 °F 26.6 °F 75% 30.18 in 10.0 mi SE 13.8 mph - N/A   Clear
9:55 PM 33.8 °F 24.3 °F 26.6 °F 75% 30.18 in 10.0 mi SE 13.8 mph - N/A   Clear
10:15 PM 33.8 °F 25.3 °F 26.6 °F 75% 30.18 in 10.0 mi ESE 11.5 mph - N/A   Clear
10:35 PM 32.0 °F 24.2 °F 26.6 °F 80% 30.19 in 10.0 mi ESE 9.2 mph - N/A   Clear
10:55 PM 32.0 °F 24.2 °F 26.6 °F 80% 30.19 in 10.0 mi ESE 9.2 mph - N/A   Clear
11:15 PM 32.0 °F 24.2 °F 26.6 °F 80% 30.19 in 10.0 mi ESE 9.2 mph - N/A   Clear
11:35 PM 32.0 °F 23.0 °F 26.6 °F 80% 30.18 in 10.0 mi SE 11.5 mph - N/A   Clear
11:55 PM 32.0 °F 23.6 °F 26.6 °F 80% 30.18 in 10.0 mi SE 10.4 mph 16.1 mph N/A   Clear